Weather Service Report


866 
ASUS46 KSTO 290515
RWRCA 

NORTHERN AND CENTRAL CA REGIONAL WEATHER ROUNDUP
NATIONAL WEATHER SERVICE SACRAMENTO CA 
1000 PM PDT WED SEP 28 2016

NOTE: FAIR INDICATES FEW OR NO CLOUDS BELOW 12,000 FEET WITH NO
SIGNIFICANT WEATHER AND/OR OBSTRUCTIONS TO VISIBILITY.

CAZ001-003-290600-
NORTHWEST AREA
  
CITY           SKY/WX    TMP DP  RH WIND       PRES   REMARKS
CRESCENT CITY  CLOUDY    54  51  90 S15       29.97R                  
UKIAH          FAIR      68  49  50 CALM      29.90R                  
$$

CAZ006-505>513-290600-
BAY AREA
  
CITY           SKY/WX    TMP DP  RH WIND       PRES   REMARKS
SANTA ROSA     CLOUDY    53  52  96 SE7       29.93R                  
SAN RAFAEL     N/A       58  MM  MM MISG
NAPA           FAIR      55  51  86 W5        29.94R                  
CONCORD        FAIR      61  51  70 NW7       29.91R                  
OAKLAND CITY   N/A       56  MM  MM MISG
OAKLAND        CLOUDY    58  55  90 NW7       29.97R                  
SAN FRAN CITY  N/A       54  MM  98 MISG
SAN FRAN ARPT  FAIR      55  52  89 W14       29.97R                  
LIVERMORE      FAIR      62  51  67 W10       29.92R                  
HAYWARD        CLOUDY    58  51  78 N8        29.96R                  
REDWOOD CITY   N/A       59  MM  83 MISG
MOFFETT ARPT   CLOUDY    60  55  83 N6        29.97R                  
SAN JOSE ARPT  FAIR      60  55  83 W3        29.97R                  
$$
CAZ034-037-514>518-290600-
CENTRAL COAST
  
CITY           SKY/WX    TMP DP  RH WIND       PRES   REMARKS
WATSONVILLE    CLOUDY    54  54 100 CALM      30.00R FOG              
SALINAS        CLOUDY    57  53  86 W6        29.99R                  
MONTEREY       CLOUDY    57  54  89 W3        29.99R                  
SAN LUIS OBISP FAIR      58  53  84 NW3       29.97R                  
SANTA MARIA    FAIR      55  55 100 CALM      29.98R                  
$$
CAZ015-016-290600-
NORTHERN SACRAMENTO VALLEY
  
CITY           SKY/WX    TMP DP  RH WIND       PRES   REMARKS
REDDING        FAIR      75  50  41 CALM      29.84R                  
RED BLUFF      FAIR      75  53  46 CALM      29.84R                  
OROVILLE       FAIR      78  47  33 E7        29.85R                  
$$
CAZ016>018-290600-
SOUTHERN SACRAMENTO VALLEY
  
CITY           SKY/WX    TMP DP  RH WIND       PRES   REMARKS
AUBURN         FAIR      75  45  33 SE6       29.94R                  
BEALE AFB      FAIR      71  46  41 SE7       29.83R                  
LINCOLN        FAIR      73  46  38 S8        29.85R                  
MARYSVILLE     FAIR      71  53  52 SE12      29.84R                  
SAC INTL ARPT  FAIR      65  52  62 S16       29.84R                  
MATHER AIRPORT CLEAR     68  52  56 SW7       29.87R                  
DOWNTOWN SAC   N/A       69  MM  MM MISG
SAC EXEC ARPT  FAIR      66  52  60 S10       29.86R                  
VACAVILLE      FAIR      64  52  64 SW14      29.85R                  
TRAVIS AFB     FAIR      58  53  83 SW26      29.85R                  
$$
CAZ019>021-290600-
SAN JOAQUIN VALLEY
  
CITY           SKY/WX    TMP DP  RH WIND       PRES   REMARKS
STOCKTON       FAIR      74  52  46 NW8       29.87R                  
MODESTO        FAIR      79  50  36 N5        29.86R                  
MERCED         FAIR      74  48  39 W6        29.86R                  
LEMOORE        FAIR      82  37  20 S13       29.88R                  
FRESNO         FAIR      82  42  24 SE6       29.89R                  
HANFORD        FAIR      80  40  23 S6        29.89R                  
PORTERVILLE    FAIR      81  53  37 E8        29.92R                  
BAKERSFIELD    FAIR      83  50  31 SE3       29.91R HAZE             
$$
CAZ011-012-071-290600-
NORTHERN MOUNTAINS
  
CITY           SKY/WX    TMP DP  RH WIND       PRES   REMARKS
YREKA          FAIR      64  44  48 N7        29.95R                  
MOUNT SHASTA   FAIR      59  44  57 CALM      30.01R                  
ALTURAS        FAIR      61  33  35 VRB3      30.05R                  
$$
CAZ011-012-071-290600-
SIERRA NEVADA MTNS
  
CITY           SKY/WX    TMP DP  RH WIND       PRES   REMARKS
BLUE CANYON    FAIR      66  35  31 E3        30.17R                  
TRUCKEE        FAIR      54  36  50 SE5       30.20R                  
TAHOE VLY ARPT FAIR      60  34  37 S5        30.21R                  
MAMMOTH LAKES  FAIR      52  29  41 CALM      30.30R                  
$$
  

Return to Home page


Western Regional Climate Center, wrcc@dri.edu